Voltar ao catálogo

COSMOS 1275 DEB

AtivoPO
NORAD 12664·DEBRIS·🇷🇺 Russia

Lançado Jun 4, 1981 de Plesetsk Cosmodrome

Loading…

Próximas Passagens (próximas 24 horas)

TLE

AtualizadoSource: Space-Track

Época: Sep 14, 2026, 15:02 UTC

1 12664U 81053U   26257.62667356  .00000324  00000-0  31884-3 0  9995
2 12664  82.8931 204.4608 0080165  31.1022 141.6779 13.74538613254495

Acompanhe COSMOS 1275 DEB em tempo real com AllMySat

Download on the App Store